User: anonymous
Location: Unspecified
(0.0000°N, 0.0000°E)
Time: 04:56:41
(UTC+02:00)
Language:

deb Ariane - Orbit

View from above orbital plane
View from above orbital plane
View from above satellite
View from above satellite

Ground track
Ground track

The orbit data is extracted from the following two-line orbital elements,

1 25668U 92060E   14258.49780589  .00457769 -12196-6  17640-2 0  6221
2 25668 007.4158 120.5635 5421682 088.7966 254.6114 05.09595694251292
Epoch (UTC): 15 September 2014 11:56:50
Eccentricity: 0.5421682
inclination: 7.4158°
perigee height: 152 km
apogee height: 15620 km
right ascension of ascending node: 120.5635°
argument of perigee: 88.7966°
revolutions per day: 5.09595694
mean anomaly at epoch: 254.6114°
orbit number at epoch: 25129

The dashed part of the orbit path shows where the satellite is in the earth's shadow,  

DLR